Dewpoint
69 69 71 73 73 73 73 73 73 72 73 73 73 73 73 72 72 72 73 73 73 72 73 73 73 73 73 73 73 73 73 73 73 72 72 72 72 72 71 71 71 71 71 70 70 70 70 70 69 69 69 69 69 71 71 71 70 70 70 70 69 69 68 67 66 65 65 66 70 69 69 69 69 70 69 69 69 68 68 69 69 68 68 69 70
69 70 71 72 73 73 73 72 73 72 73 73 73 73 72 72 72 72 72 73 73 73 73 73 73 73 73 73 73 73 73 73 73 72 72 72 72 72 71 71 71 71 71 70 70 71 71 71 70 70 69 69 68 69 70 70 70 70 69 69 70 69 68 68 67 67 67 67 68 69 69 69 69 69 69 69 69 68 68 67 67 67 66 68 69
70 70 71 72 73 73 73 72 73 72 72 73 73 72 72 72 72 72 73 73 73 73 73 73 72 72 73 73 73 73 73 72 72 72 72 72 72 72 71 71 71 71 71 71 71 71 70 69 69 69 69 69 68 67 67 68 68 69 69 69 69 69 68 68 68 68 68 68 68 69 69 69 68 69 69 68 68 68 68 67 66 67 66 67 67
70 70 71 71 72 73 73 72 72 72 72 73 73 72 72 72 72 72 73 73 72 73 73 73 73 73 73 73 73 73 72 72 72 72 72 72 72 71 71 71 71 71 71 71 71 70 69 69 69 69 68 68 68 67 67 67 67 67 67 68 68 68 67 66 66 68 68 67 67 67 68 64 67 68 68 68 68 68 67 66 66 65 65 65 66
70 71 70 70 71 72 73 72 72 72 72 73 73 72 72 72 72 73 73 72 73 73 73 73 73 73 72 73 72 72 72 72 72 72 72 72 72 71 71 71 71 70 70 70 70 70 69 69 68 68 68 68 68 68 68 68 68 68 67 67 67 67 68 68 66 66 66 66 67 67 63 63 64 67 67 67 67 67 67 67 67 66 66 66 66
70 70 70 70 71 72 72 72 72 72 72 72 73 73 72 72 72 72 72 73 73 73 73 73 73 72 73 72 72 72 72 72 72 72 72 72 72 71 71 71 70 70 70 70 70 70 69 69 69 68 68 68 68 68 69 68 69 68 68 68 67 67 67 68 67 66 66 66 66 64 62 63 65 66 66 66 65 66 66 66 66 66 66 66 65
70 70 70 70 71 72 72 72 71 72 72 72 72 72 72 72 72 73 73 73 73 73 73 73 72 72 72 72 72 72 72 72 72 72 72 71 71 72 71 70 70 70 69 69 69 68 68 69 68 68 68 68 68 69 69 69 69 69 69 69 69 69 68 68 68 67 67 68 63 62 61 63 64 65 66 65 65 66 66 65 64 65 65 66 66
70 69 70 70 71 72 72 72 71 72 72 72 72 72 72 72 72 73 73 73 73 73 73 73 72 72 72 72 72 72 72 72 72 72 72 72 71 71 70 70 69 69 68 67 68 69 68 69 69 69 69 70 69 69 69 69 69 69 69 69 69 68 68 69 69 68 68 66 63 61 61 63 63 64 65 65 65 65 66 66 64 64 64 63 63
69 69 70 70 71 72 72 72 71 72 72 72 72 72 72 72 72 73 73 73 73 73 73 73 73 72 72 72 72 72 71 71 71 71 71 71 71 71 71 70 70 70 69 69 69 68 69 69 69 69 70 70 70 70 69 69 69 69 69 69 68 69 69 70 68 69 69 65 62 61 62 63 63 63 65 65 65 64 65 65 66 65 65 64 64
69 70 70 70 70 72 72 72 72 72 72 71 72 72 72 72 73 73 73 73 73 73 73 73 72 72 72 72 72 72 72 72 71 72 72 71 71 70 70 70 69 69 68 68 68 68 69 70 69 69 70 70 70 70 70 70 70 69 69 69 69 69 70 67 67 69 66 63 62 62 62 68 64 65 65 64 64 64 63 64 67 65 66 65 65
69 70 70 70 71 72 72 72 71 71 72 71 72 72 72 72 73 73 73 73 73 73 73 73 72 72 72 72 71 71 71 72 71 71 71 70 70 70 70 69 68 68 69 69 68 68 70 70 70 70 70 70 70 70 70 70 70 70 69 69 70 70 69 66 65 63 62 62 62 62 68 68 63 65 67 66 65 65 65 66 66 67 66 65 65
69 70 70 70 71 71 72 72 71 71 71 72 72 72 72 72 73 73 73 73 73 73 73 72 72 72 72 71 71 71 71 71 71 71 70 70 70 69 69 68 68 69 69 69 68 70 70 70 70 70 70 70 70 70 70 70 70 70 70 70 70 70 69 66 63 62 62 62 63 63 65 65 63 66 67 67 68 68 67 67 67 67 66 64 64
69 69 70 70 70 72 72 72 72 72 72 72 72 72 72 73 73 73 73 73 73 72 72 72 72 72 71 71 71 71 70 70 70 70 69 70 69 69 69 69 70 69 69 68 69 70 70 70 70 70 70 70 70 70 70 70 70 70 70 70 70 70 69 67 64 63 63 64 65 65 64 63 64 67 67 68 67 67 66 66 67 66 66 65 63
69 69 70 70 70 71 72 72 72 72 71 71 72 72 73 73 73 73 73 73 72 72 72 72 72 71 71 71 71 71 70 70 69 69 69 69 68 68 68 68 69 68 68 69 69 69 70 70 70 70 70 70 71 70 71 70 71 71 70 71 71 71 69 67 66 64 65 65 65 64 64 65 64 68 68 67 66 66 66 66 65 65 65 64 64
68 69 70 70 70 70 72 72 72 72 72 72 73 73 73 73 73 73 73 73 72 72 72 72 72 71 71 71 71 70 70 69 69 69 68 68 68 68 68 68 68 67 68 69 69 69 69 69 70 70 70 71 70 71 70 71 71 71 71 71 71 71 70 66 64 64 65 66 65 66 64 64 68 69 67 66 66 65 65 64 64 64 63 63 63
69 69 69 69 70 70 71 71 71 72 72 73 73 73 73 73 73 73 73 72 72 72 72 72 71 71 71 71 70 70 69 68 68 68 67 68 68 67 67 67 67 67 67 69 68 68 69 69 69 70 70 70 71 71 71 71 71 71 71 70 71 71 69 69 64 64 64 65 65 66 64 65 69 68 67 66 65 65 65 65 64 64 63 63 63
69 69 69 69 70 70 70 70 71 72 72 72 73 73 73 73 73 73 72 72 72 72 72 71 71 71 71 70 69 69 69 68 67 67 66 67 67 67 67 67 66 66 68 68 68 68 68 68 69 69 70 70 70 71 71 71 71 71 71 71 70 71 68 68 64 64 65 66 67 66 65 66 68 68 67 66 66 65 65 65 64 63 63 63 63
68 68 68 69 69 69 70 70 70 71 71 72 73 73 73 73 73 72 72 72 72 72 71 71 71 71 70 70 70 69 68 68 68 68 67 66 66 66 67 67 67 67 68 68 68 67 68 68 69 69 69 70 70 71 71 71 71 71 71 71 71 70 67 67 64 64 65 68 66 67 66 68 69 67 67 67 66 66 65 65 64 63 63 63 63
68 68 68 68 68 69 70 71 71 71 71 71 72 73 73 73 72 73 72 72 72 72 72 71 71 71 70 70 70 69 69 69 69 68 67 66 66 66 67 67 67 67 67 67 67 68 68 68 68 68 69 69 70 70 70 70 71 70 71 72 71 69 66 67 65 63 65 67 66 66 65 68 69 68 68 67 66 66 65 65 64 64 63 63 63
68 68 67 67 68 70 70 71 71 71 71 72 72 72 73 73 72 72 72 72 72 72 71 71 71 71 71 70 70 69 69 68 69 67 68 67 66 66 67 67 67 67 66 67 67 68 68 68 68 69 69 69 69 70 70 70 69 70 71 71 72 68 63 63 63 62 65 65 66 65 67 68 69 68 68 67 67 66 65 65 64 64 64 63 63
67 67 67 68 69 70 70 71 71 71 72 72 72 71 72 73 72 72 72 72 72 72 71 71 71 71 70 70 70 66 66 67 66 66 68 66 67 67 66 67 67 67 67 67 67 68 68 68 68 69 69 69 69 70 69 69 68 68 71 71 71 64 62 62 62 66 65 66 68 65 67 68 68 68 68 67 67 66 66 65 64 64 64 63 63
66 67 68 69 70 70 70 71 71 71 71 72 71 71 72 72 71 71 71 71 71 71 70 69 71 68 70 69 67 68 66 65 65 70 68 67 68 68 67 66 67 67 67 67 68 68 68 69 69 69 69 69 69 65 65 67 67 68 69 69 67 66 64 63 62 63 66 65 68 66 68 68 69 69 69 68 67 67 66 65 64 64 64 63 63
65 66 68 69 69 70 70 70 71 71 71 71 71 71 71 70 70 70 71 71 71 71 69 70 67 67 68 67 68 67 66 67 67 68 69 70 68 68 68 67 67 67 68 68 69 69 69 69 69 69 69 69 63 61 62 62 62 67 67 65 64 65 65 64 62 62 65 65 66 67 68 68 69 69 69 68 67 67 66 65 64 64 64 64 64
64 66 67 68 69 69 69 70 70 71 71 71 71 71 71 70 70 70 70 70 69 70 68 68 67 67 67 67 67 67 67 66 70 70 71 68 66 70 69 68 68 69 68 68 68 68 69 69 68 68 68 66 62 61 62 61 61 62 63 63 63 64 64 64 63 63 63 65 67 67 68 68 70 69 69 69 68 67 67 66 65 65 63 64 64
64 66 66 67 68 68 69 69 70 70 70 70 70 70 71 70 70 70 69 69 69 68 68 67 67 67 67 67 67 67 67 66 65 66 67 66 65 65 64 63 63 62 68 63 64 64 64 63 63 64 61 61 61 61 61 61 61 61 61 62 62 63 63 64 63 62 62 62 66 68 68 69 70 70 70 69 68 68 68 66 65 66 64 64 64
65 65 65 66 67 68 68 68 69 69 70 70 70 70 70 70 70 69 69 68 68 68 67 67 67 66 67 67 68 66 66 66 65 65 66 65 65 65 65 64 64 65 66 65 65 65 64 64 64 64 63 61 60 60 59 62 60 60 60 60 61 62 63 64 63 63 63 63 63 68 68 69 70 70 70 70 69 68 68 67 66 66 65 64 63
64 64 65 66 66 67 67 68 68 69 69 69 70 70 70 70 70 70 69 69 68 67 66 67 67 66 67 67 68 66 65 65 64 65 65 65 65 65 65 66 66 66 66 65 66 65 65 65 65 65 64 63 62 60 59 59 59 58 58 58 60 61 63 63 63 63 63 63 64 67 68 69 70 70 70 70 69 69 68 68 67 66 66 65 64
63 64 64 65 66 66 67 67 67 68 68 69 69 69 69 69 70 69 69 69 68 67 66 67 67 67 67 67 68 65 65 64 64 64 65 65 66 66 66 66 66 66 66 67 66 65 64 64 65 65 65 64 62 61 61 60 60 59 59 61 61 61 63 64 64 64 64 63 63 66 69 69 70 70 70 70 70 69 69 68 68 66 66 66 65
63 64 65 65 66 67 67 66 67 67 67 67 68 67 68 68 69 70 69 70 68 67 67 67 66 66 66 66 67 65 63 63 63 64 64 65 65 67 67 67 67 67 65 65 65 65 65 65 64 64 64 64 62 63 63 64 64 64 63 63 62 61 61 62 63 63 62 63 63 64 68 70 70 69 70 70 70 69 69 67 67 66 67 66 66
64 64 65 65 66 67 66 66 66 67 67 67 67 66 66 67 68 68 68 69 68 67 66 65 65 64 64 65 66 65 64 64 64 64 63 64 64 66 67 66 66 66 65 66 66 65 65 65 65 65 66 64 64 65 66 66 66 65 64 63 64 63 62 62 61 61 61 63 63 64 67 69 70 69 69 70 70 70 69 68 67 67 67 67 67
64 65 65 65 66 67 66 66 66 67 66 66 65 65 65 67 67 68 67 68 68 67 66 64 64 63 64 66 66 66 65 65 65 64 65 65 65 65 65 65 65 65 65 66 65 66 65 65 65 64 64 64 65 65 65 65 64 65 64 65 64 64 63 62 62 62 62 62 63 63 65 67 70 70 69 69 69 70 69 68 68 66 67 67 68
64 65 65 66 66 66 66 66 66 66 66 65 65 64 64 65 67 67 67 67 67 66 64 63 65 63 66 66 66 65 66 65 65 65 64 64 63 63 64 64 64 64 66 65 65 66 65 65 65 65 65 64 64 64 63 63 63 64 64 64 64 64 64 63 63 63 62 62 63 63 64 65 68 70 70 69 69 69 68 67 67 68 66 66 67
65 65 65 66 66 66 66 66 66 66 65 64 64 64 64 64 65 65 66 66 65 64 64 64 65 66 66 66 66 66 66 66 65 65 68 63 63 63 64 65 65 65 65 66 66 65 64 64 64 64 63 63 62 63 64 62 62 63 63 64 64 64 64 64 64 63 63 63 62 63 64 65 65 68 69 70 69 68 68 68 67 67 67 67 66
64 65 65 65 66 66 66 66 66 65 65 64 64 64 63 64 65 65 66 66 65 65 66 66 67 66 65 65 65 66 66 67 66 65 65 64 63 64 64 64 65 65 66 66 63 63 63 63 64 62 65 62 61 62 62 62 62 62 63 63 63 63 63 64 64 63 63 63 62 62 63 64 65 65 66 68 69 68 67 66 67 67 67 67 66
64 65 65 65 66 66 66 66 65 65 65 64 64 64 64 66 66 67 67 66 66 66 66 66 66 65 64 65 66 67 66 66 66 65 64 63 63 63 64 64 65 65 64 64 63 63 63 63 63 62 61 61 61 62 62 62 61 62 63 63 63 64 63 63 63 63 64 64 63 62 63 64 64 65 65 64 67 67 68 68 68 68 68 67 67
64 64 65 65 66 66 66 65 65 64 64 64 64 65 66 67 67 67 66 66 66 66 65 65 65 65 65 65 66 67 66 65 65 65 64 64 64 64 65 66 66 65 64 64 64 64 62 62 62 62 61 62 62 62 62 62 62 62 62 63 63 63 63 62 63 63 63 63 63 63 63 63 63 64 67 65 65 66 67 67 68 68 68 68 68
64 64 65 65 65 65 66 65 64 64 64 65 66 66 66 66 66 66 66 66 66 65 65 65 65 65 65 66 66 66 65 65 66 66 65 65 64 63 64 66 66 65 64 63 63 63 62 63 62 63 62 60 61 61 61 62 62 62 62 62 62 62 62 62 62 63 63 63 63 63 63 63 63 66 64 63 64 64 66 67 67 68 68 68 68
64 65 65 65 65 65 65 64 64 65 65 66 66 66 66 66 66 66 66 65 65 65 65 66 66 65 65 65 65 65 65 65 66 66 65 66 65 64 65 65 64 64 63 62 62 62 62 62 61 62 62 61 61 60 60 61 62 61 61 61 61 61 61 61 62 63 62 62 63 63 64 64 64 64 63 63 63 64 64 65 66 66 67 67 67
64 64 65 65 65 65 65 64 64 65 66 66 66 65 65 65 65 65 65 65 65 65 65 65 65 65 65 65 66 66 66 65 66 66 65 65 64 64 63 63 63 62 61 61 61 61 61 61 61 60 61 61 59 59 59 60 60 60 60 60 60 60 60 60 61 61 61 62 63 64 63 63 62 63 63 64 63 63 63 63 63 64 64 65 66
64 64 64 65 64 64 64 64 65 65 66 65 65 65 65 64 64 64 64 64 64 65 65 64 64 65 65 65 65 65 66 66 65 65 64 63 62 62 62 62 62 61 60 60 59 60 60 60 60 60 59 59 59 59 59 60 58 57 59 59 59 58 59 60 59 59 61 61 62 62 61 60 59 61 62 63 63 63 63 64 65 64 64 65 66
63 64 64 64 64 64 64 64 65 65 65 65 65 64 63 63 63 63 62 62 63 64 64 65 65 66 66 66 65 65 64 64 64 63 62 63 61 61 61 61 61 60 60 59 59 59 59 58 58 59 59 57 57 58 58 58 57 56 57 57 57 58 59 60 58 58 60 61 61 61 60 56 56 59 61 61 61 61 62 62 63 63 63 64 64
63 63 63 64 64 64 64 64 65 65 65 65 65 64 64 64 63 62 63 63 64 64 64 65 65 65 65 64 63 62 62 62 62 61 61 60 59 59 60 60 60 59 59 59 58 60 58 58 58 57 58 57 56 57 57 57 55 56 56 56 55 57 57 57 57 56 59 59 60 59 56 54 54 58 59 57 58 58 59 60 61 61 62 62 63
62 63 63 64 64 64 64 64 64 64 64 65 65 64 63 63 63 62 63 63 64 64 64 65 64 63 62 62 61 61 60 60 60 61 59 59 58 58 58 58 58 59 57 57 57 57 57 57 57 56 55 56 56 56 56 56 53 54 55 55 53 54 56 55 55 55 58 56 58 57 55 52 52 57 56 55 55 54 56 58 58 59 60 62 63
63 63 64 64 64 64 64 64 64 64 64 65 65 64 64 64 64 64 63 64 64 65 64 63 62 60 59 59 59 59 59 59 58 58 58 58 57 57 57 57 57 57 56 56 56 56 56 56 56 57 54 53 53 54 56 55 55 54 53 53 53 54 52 51 53 54 55 55 56 56 54 51 52 56 54 53 52 52 54 55 56 58 59 61 63
63 64 64 64 64 64 65 64 64 64 64 65 64 64 64 64 64 64 64 64 64 63 62 61 60 59 58 57 57 57 57 57 57 57 58 56 57 57 56 56 56 56 56 55 55 55 54 54 55 55 54 52 51 51 53 54 53 55 55 54 52 51 51 53 53 51 53 53 55 54 54 51 51 55 53 52 50 49 53 53 55 54 57 56 56
63 64 65 65 65 65 64 64 64 64 64 64 64 64 64 63 63 62 62 62 61 60 60 58 58 57 57 57 57 57 57 56 56 56 57 57 56 56 55 55 55 55 55 55 54 54 53 53 54 53 53 53 51 51 50 52 53 54 53 55 56 52 51 52 51 49 51 52 54 52 52 50 51 53 52 50 47 47 52 51 54 51 55 53 52
64 64 65 65 65 64 64 64 64 64 64 64 64 64 63 63 63 63 63 62 61 61 60 59 57 57 57 56 56 56 56 56 56 56 55 55 55 55 54 54 54 54 55 53 53 53 53 53 54 53 53 53 51 49 49 50 50 51 52 52 54 54 53 50 48 49 47 50 51 50 50 50 50 51 50 49 46 46 49 50 51 48 53 49 49
64 65 64 64 64 64 64 63 63 64 64 64 63 63 62 62 62 62 63 62 61 60 59 58 57 57 56 56 56 55 55 55 55 55 55 55 54 54 54 54 54 54 54 52 52 51 52 53 53 52 53 52 50 49 49 49 49 49 52 51 52 52 51 49 48 48 48 46 45 47 48 47 47 49 48 46 44 45 47 48 47 47 51 46 46
64 64 64 64 64 64 63 63 63 64 64 63 63 62 62 62 62 62 62 62 60 59 59 58 57 56 55 55 54 54 54 54 54 54 54 54 55 53 53 53 53 53 54 52 51 51 51 51 51 51 51 51 52 51 49 49 48 48 48 48 48 49 49 48 47 47 47 45 44 44 43 44 43 44 45 44 43 44 45 47 46 44 49 45 44
64 64 64 64 64 63 63 63 63 64 64 63 62 62 62 62 62 62 62 61 60 59 58 56 56 55 54 54 54 53 53 53 53 53 53 53 53 53 53 53 53 53 54 51 50 50 50 50 51 51 51 50 50 49 48 48 47 47 46 46 45 46 46 45 44 44 44 45 43 42 42 40 39 41 44 42 42 43 42 45 43 42 44 43 43
64 64 63 64 64 64 63 63 63 64 63 62 62 61 62 62 62 62 61 60 59 58 57 56 55 54 54 53 53 53 53 52 52 52 52 52 53 54 52 52 52 54 52 50 49 49 49 49 49 49 49 49 48 47 47 46 46 46 45 45 44 44 44 43 42 42 42 41 40 40 39 40 40 40 41 41 42 41 42 42 41 41 43 42 42